Regional Weather Roundup
Issued by NWS

Home | Current Version | Previous Version | Text Only | Print | Product List | Glossary Off
Versions: 1 2 3 4 5 6 7 8 9 10 11 12 13 14 15 16 17 18 19 20 21 22 23 24 25 26 27 28 29 30 31 32 33 34 35 36 37 38 39 40 41 42 43 44 45 46 47 48 49 50

000
ASUS44 KMEG 011900
RWRTN
TENNESSEE HOURLY STATE WEATHER ROUNDUP
NATIONAL WEATHER SERVICE MEMPHIS TN
200 PM CDT SAT AUG 01 2015

TNZ002-004-019-021-049-052-054-088>092-012000-
WEST TENNESSEE

CITY           SKY/WX    TMP DP  RH WIND       PRES   REMARKS
MEMPHIS INTL   MOSUNNY   95  63  34 N9G16     30.00F HX  96
NWS MEMPHIS      N/A     93 N/A N/A MISG        N/A
JACKSON        MOSUNNY   94  61  33 NW9       30.01F HX  94
DYERSBURG        N/A    N/A N/A N/A MISG        N/A
PARIS          SUNNY     88  64  45 CALM      30.02F
LEXINGTON      SUNNY     90  64  43 W3        30.00F HX  91
$$

TNZ008-025-027-028-033-062-065-066-012000-
NORTH MIDDLE TENNESSEE

CITY           SKY/WX    TMP DP  RH WIND       PRES   REMARKS
NASHVILLE      MOSUNNY   90  64  42 VRB3      30.00F HX  91
CLARKSVILLE    MOSUNNY   89  69  51 N8        30.00F HX  93
CROSSVILLE     SUNNY     86  58  38 N8        30.07F
$$

TNZ061-075-076-078-094-096-097-012000-
SOUTH MIDDLE TENNESSEE

CITY           SKY/WX    TMP DP  RH WIND       PRES   REMARKS
FAYETTEVILLE   MOSUNNY   88  61  40 NE10      30.02F
TULLAHOMA      MOSUNNY   86  61  42 NE6       30.04F
WINCHESTER     SUNNY     90  63  40 N9        30.02F HX  90
MCMINNVILLE    MOSUNNY   88  66  48 VRB7      30.03F HX  90
COLUMBIA       MOSUNNY   91  66  43 N7        30.00F HX  94
SHELBYVILLE    MOSUNNY   91  63  38 NE9       30.02F HX  92
$$

TNZ017-018-042-046-047-012000-
NORTHEAST TENNESSEE

CITY           SKY/WX    TMP DP  RH WIND       PRES   REMARKS
TRI CITIES     MOSUNNY   86  56  35 W7        30.02F
ELIZABETHTON   PTCLDY    84  57  39 VRB7      30.02F
$$

TNZ012-013-036-069-073-074-012000-
CENTRAL EAST TENNESSEE

CITY           SKY/WX    TMP DP  RH WIND       PRES   REMARKS
KNOXVILLE      MOSUNNY   89  59  36 VRB5      30.00F
OAK RIDGE      MOSUNNY   89  62  40 VRB5      30.01F
GATLINBURG       N/A     88  55  33 NW7       30.00F
$$

TNZ083-085-099-012000-
SOUTHEAST TENNESSEE

CITY           SKY/WX    TMP DP  RH WIND       PRES   REMARKS
CHATTANOOGA    MOSUNNY   90  60  36 N9        29.99F
$$

SKY/WX REPORTED AS FAIR MEANS FEW OR NO CLOUDS BELOW
12 THOUSAND FEET.




USA.gov is the U.S. government's official web portal to all federal, state and local government web resources and services.